Voltar ao catálogo

SL-14 DEB

AtivoPO
NORAD 46465·DEBRIS·🇷🇺 Russia

Lançado Aug 15, 1991 de Plesetsk Cosmodrome

Loading…

Próximas Passagens (próximas 24 horas)

TLE

AtualizadoSource: Space-Track

Época: Sep 13, 2026, 06:36 UTC

1 46465U 91056DA  26256.27522711 -.00000548  00000-0 -15636-2 0  9996
2 46465  82.5565  94.1413 0028858  80.4549 279.9829 13.12057283292530

Acompanhe SL-14 DEB em tempo real com AllMySat

Download on the App Store